Epoch 2006 Dec. 11.0 TT = JDT 2454080.5 T 2006 Dec. 28.75313 TT MPC q 1.2512217 (2000.0) P Q n 0.18694867 Peri. 26.30139 -0.74925824 -0.62127248 a 3.0291524 Node 113.35397 +0.55503204 -0.77803810 e 0.5869400 Incl. 14.47104 +0.36131914 -0.09315158 P 5.27 From 131 observations 2006 Nov. 10-2012 June 14, mean residual 0".58.
m1 = 18.0 + 5 logΔ + 10.0 log r(t - 50)